Torna al catalogo

ARIANE 2 R/B

AttivoGTO
NORAD 19122·ROCKET BODY·🇫🇷 France

Lanciato May 17, 1988 da Guiana Space Centre

Loading…

TLE

In scadenzaSource: Space-Track

Epoca: Sep 14, 2026, 02:08 UTC

1 19122U 88040B   26257.08952085  .00001239  00000-0  75239-2 0  9997
2 19122   7.3002 248.4761 7101439 301.6889   7.9323  2.38281664276268

Traccia ARIANE 2 R/B in tempo reale con AllMySat

Download on the App Store